Wind_Speed
9 9 7 8 6 5 3 5 5 7 4 10 15 15 10 13 14 14 17 18 17 16 14 18 21 25 29 28 25 27 25 22 19 20 21 21 22 21 21 19 19 19 20 17
5 7 6 5 2 6 3 3 6 9 4 12 14 14 12 14 14 14 14 17 18 17 19 20 22 22 17 18 22 21 18 20 23 26 27 23 21 20 18 18 20 22 21 21
3 4 3 2 0 3 7 3 5 4 7 13 15 14 10 12 14 15 16 17 18 18 22 24 27 29 29 26 23 20 19 22 24 26 25 24 23 22 20 21 22 22 23 23
3 4 2 2 1 3 1 2 4 6 9 12 12 11 7 11 12 13 14 14 14 19 21 21 24 25 26 24 23 23 23 23 22 21 20 20 20 19 21 23 24 24 24 24
1 2 1 3 1 3 4 2 7 9 9 13 14 3 6 11 11 11 11 13 14 16 20 20 22 23 22 21 20 20 20 20 21 20 22 22 22 22 24 26 26 25 24 25
2 3 3 1 4 5 5 3 7 7 8 9 12 7 5 11 12 12 15 17 18 16 18 18 22 23 19 18 20 22 23 24 24 24 24 24 23 24 25 24 26 26 24 24
1 3 6 3 9 6 2 2 8 5 6 5 4 4 7 10 11 18 19 20 23 18 20 20 22 23 21 22 23 26 24 25 24 25 24 23 24 25 24 24 24 23 23 23
2 1 5 5 3 1 3 5 6 3 4 5 6 6 7 10 10 14 18 22 24 19 21 22 23 21 20 20 25 27 28 27 25 24 22 22 22 21 21 20 20 20 21 21
6 4 2 1 2 2 3 3 4 5 3 6 8 9 7 7 5 8 13 16 20 21 24 24 26 24 22 25 26 26 23 23 24 24 22 24 20 18 18 19 18 18 19 19
2 2 2 3 3 3 2 3 3 4 4 6 7 9 11 8 4 7 11 12 15 17 17 20 24 23 21 23 26 26 26 29 28 26 26 27 27 25 20 19 20 21 20 20
4 4 1 6 3 4 4 4 4 5 6 5 5 6 8 6 10 12 16 19 16 14 13 15 17 17 20 21 22 22 21 23 25 26 27 27 26 24 21 19 21 26 24 21
4 4 4 2 1 4 5 4 5 5 6 7 8 6 9 9 12 10 11 13 11 13 15 18 22 22 21 18 18 17 19 18 18 19 21 23 24 27 22 17 19 26 23 16
3 4 3 5 6 6 5 4 5 6 6 5 10 11 13 11 12 17 18 18 17 20 23 26 26 25 27 27 26 24 23 23 22 22 22 22 21 19 18 24 18 21 31 28
4 6 3 3 2 6 7 7 7 6 7 8 11 12 14 14 16 19 20 21 21 21 23 26 27 27 28 29 29 26 25 25 26 26 24 23 22 20 20 17 17 23 23 26
7 6 5 8 7 6 8 7 5 7 10 11 12 13 15 15 14 20 22 20 21 22 23 26 26 28 27 27 27 25 24 23 23 21 20 19 18 17 17 18 18 19 22 20
6 6 6 5 4 5 5 7 7 7 10 13 13 15 17 17 17 19 21 17 19 19 22 25 25 26 26 25 24 23 21 19 19 19 19 19 18 18 18 16 16 17 19 20
4 3 3 3 4 4 5 6 7 9 11 13 14 16 15 16 16 19 18 18 19 20 19 22 24 24 21 23 22 20 19 18 18 18 18 16 17 16 15 15 15 16 18 21
10 9 8 5 3 4 5 6 8 9 10 10 15 17 17 17 14 18 19 20 23 24 23 25 24 21 19 21 20 18 17 16 16 16 15 16 16 16 16 16 16 16 18 21
11 9 8 7 6 4 4 5 7 8 10 12 14 16 16 15 14 17 19 20 21 19 27 25 23 19 20 20 18 16 16 15 15 15 14 15 16 17 18 17 16 18 19 20
9 8 7 7 6 6 5 5 6 9 11 10 11 15 17 16 17 18 18 18 20 21 23 22 20 19 19 18 17 16 15 14 13 13 14 15 15 16 16 17 18 19 20 21
7 7 7 6 6 7 7 6 7 10 10 8 10 14 14 14 18 18 17 14 23 23 23 20 19 19 18 17 16 15 14 13 13 13 13 13 14 15 16 17 19 20 20 23
6 5 5 4 5 6 7 8 7 9 8 8 10 12 14 17 17 17 15 15 20 20 21 21 20 17 16 16 15 14 14 14 13 13 13 13 13 14 15 16 17 19 20 22
4 2 2 2 3 4 5 6 8 7 7 8 9 12 13 13 11 13 14 20 18 18 18 19 18 16 15 15 15 15 14 14 14 13 12 12 12 12 13 13 14 16 17 19
4 3 4 4 4 4 6 6 7 8 7 7 7 9 12 14 13 11 14 15 16 16 17 18 17 16 15 16 16 16 16 15 14 13 12 12 11 11 12 12 12 13 15 17
6 6 5 5 3 3 5 7 7 10 8 8 9 11 11 10 9 11 13 14 15 15 16 17 17 16 15 15 15 15 15 15 14 14 13 13 13 12 12 12 13 12 13 14
7 7 6 3 3 4 5 7 7 6 8 9 10 11 11 11 11 11 10 12 14 16 17 17 16 16 15 15 15 15 15 14 14 14 14 14 13 13 12 12 12 13 14 14
8 5 3 2 2 3 4 5 8 6 6 7 8 9 10 11 11 11 11 12 13 14 15 15 15 15 14 14 14 14 14 14 14 13 13 13 13 13 12 12 13 13 14 14
Wind_Direction
262 271 266 267 282 302 278 280 274 317 269 358 344 334 5 4 17 20 14 13 15 9 15 7 359 19 8 357 351 358 360 359 350 347 348 343 341 340 339 338 337 323 324 309
295 291 247 247 318 323 277 341 297 307 260 5 332 331 11 7 16 22 16 5 2 3 2 355 354 4 10 350 349 352 348 344 349 349 349 338 332 329 339 341 337 333 324 323
275 333 311 236 288 294 315 59 307 341 339 343 339 342 26 17 14 11 8 3 359 355 353 354 353 355 356 350 346 349 347 346 347 343 340 334 334 334 339 335 333 327 325 323
288 314 239 192 143 316 354 66 354 332 349 344 331 327 30 30 14 9 4 2 357 349 345 347 347 351 345 346 345 346 345 342 340 338 333 328 330 328 334 333 328 322 321 323
246 278 33 151 336 326 306 140 19 345 345 341 332 314 92 30 14 7 1 355 350 348 342 344 346 345 341 341 342 345 340 338 337 339 332 334 335 337 334 330 321 318 319 320
349 287 262 179 288 304 259 234 11 349 348 346 337 347 353 9 3 2 0 352 348 350 349 349 346 345 344 343 346 345 340 340 343 342 337 335 334 333 326 321 312 315 317 321
253 246 287 287 310 318 270 310 334 351 345 351 354 356 350 351 350 360 353 346 350 347 349 346 346 349 348 347 349 341 341 342 341 341 337 337 331 330 323 316 316 317 315 322
87 41 294 348 331 77 286 323 324 320 344 342 341 350 5 352 0 357 346 348 347 347 342 342 348 349 347 348 342 345 345 343 341 339 339 338 330 323 319 321 321 325 321 318
175 224 205 120 227 261 301 321 336 339 8 349 343 351 358 354 7 349 350 346 340 340 339 345 348 350 349 346 346 345 344 343 341 339 337 339 332 329 327 335 335 329 327 316
25 258 230 227 247 257 242 270 344 28 27 14 351 344 342 341 351 1 354 341 338 342 343 342 346 349 348 345 344 344 342 340 341 339 342 348 349 346 340 336 342 335 323 312
262 255 290 215 213 253 289 67 39 45 47 30 359 347 347 347 351 356 348 342 346 343 340 333 337 346 352 350 344 340 334 338 341 342 348 350 351 349 343 345 342 334 321 304
228 210 153 236 20 42 85 57 44 31 12 14 7 349 347 347 343 342 337 331 333 338 338 341 355 357 353 346 344 343 346 343 336 339 348 353 353 349 4 4 356 360 355 327
170 154 130 116 75 57 77 54 54 41 22 4 1 356 350 339 343 347 350 350 343 342 350 357 358 359 360 358 356 356 353 348 347 352 356 355 355 357 353 10 26 17 23 27
81 118 101 16 103 61 60 37 37 38 24 17 358 358 352 340 335 348 347 346 348 349 353 355 357 1 1 360 360 0 360 2 2 1 360 355 359 2 8 1 352 1 25 31
64 62 89 110 87 62 50 28 34 18 4 5 360 356 353 340 337 338 345 343 344 351 353 354 355 357 359 357 359 1 4 4 2 2 5 6 5 11 12 9 8 6 13 24
106 95 95 94 92 58 43 27 20 9 6 0 355 353 342 333 327 338 349 358 357 345 346 349 351 353 357 356 357 1 5 6 7 8 9 12 13 14 12 11 15 14 13 10
131 151 141 97 63 61 51 43 29 13 4 1 353 344 339 343 349 354 359 1 356 354 355 355 350 353 353 356 358 359 2 7 11 15 16 16 16 14 17 20 21 22 20 32
90 89 75 75 65 50 42 37 27 17 8 354 349 354 358 359 349 355 351 344 345 350 360 357 355 355 355 356 358 0 4 8 14 18 19 21 27 26 25 28 29 30 30 43
95 96 84 70 53 57 46 26 19 7 4 0 357 360 4 8 4 2 1 7 1 351 350 355 357 0 358 0 1 4 7 12 19 24 29 29 32 38 36 32 36 42 45 48
98 90 82 76 54 39 7 0 351 355 2 357 359 10 3 9 6 360 2 7 6 354 355 357 3 4 360 3 4 7 10 18 23 27 30 37 38 39 49 50 47 49 52 55
116 106 93 70 52 43 26 9 352 350 359 2 21 17 7 7 4 7 6 350 360 2 3 5 7 4 4 6 10 13 18 23 29 32 36 42 47 51 55 61 62 63 62 68
119 116 118 85 66 55 23 9 14 8 26 26 25 15 10 8 5 7 14 2 357 0 2 6 8 5 9 14 18 23 27 32 36 39 44 48 55 59 62 66 69 75 79 81
132 123 122 85 79 48 31 42 26 15 15 20 15 11 13 4 357 360 344 1 2 5 6 11 9 13 16 24 27 30 33 35 38 41 46 51 58 63 67 71 77 83 86 88
143 134 125 121 96 37 24 15 10 5 6 22 13 8 5 360 7 3 356 358 5 10 16 17 18 23 29 34 36 37 37 37 39 43 48 53 58 65 71 74 79 86 92 95
150 142 136 135 77 34 15 6 15 21 29 29 21 16 8 7 6 360 3 12 18 19 21 22 24 26 32 36 38 41 40 40 40 43 48 53 58 65 71 77 80 85 93 97
146 132 121 88 40 18 17 17 8 4 8 11 15 10 10 9 7 4 10 20 20 20 22 23 26 29 34 38 41 42 43 45 45 47 49 54 58 64 71 78 84 89 93 98
126 121 107 18 31 27 7 358 8 18 2 359 357 3 5 8 10 15 16 14 16 17 20 23 26 31 34 37 39 40 41 43 45 47 50 52 56 62 70 82 89 91 94 97
Height
811 810 811 811 813 815 812 804 802 792 790 794 790 787 781 779 773 775 771 766 764 761 755 758 758 742 739 740 744 736 729 727 730 728 725 725 721 717 713 709 702 700 697 694
815 804 807 808 813 812 804 805 803 796 792 793 790 784 784 783 781 782 781 774 769 768 766 764 762 755 752 753 748 742 738 735 727 724 720 722 719 717 710 705 701 698 694 691
808 803 803 809 812 812 807 814 812 802 804 797 794 790 793 791 790 789 785 781 776 771 763 763 758 750 745 748 748 743 741 736 729 725 722 721 716 713 707 704 700 697 694 690
815 807 816 815 808 809 810 813 812 807 804 803 801 798 799 797 797 798 795 790 786 782 778 773 768 760 757 754 751 746 741 737 734 729 726 723 718 714 706 702 698 695 691 687
833 817 807 811 810 814 812 811 814 812 806 805 801 795 798 801 801 803 801 798 795 790 785 778 773 767 762 758 753 749 747 742 736 730 726 719 713 708 703 699 697 693 689 684
826 818 813 812 814 813 808 808 814 813 811 810 805 797 796 800 800 799 799 798 794 790 786 780 775 769 764 761 756 752 746 737 730 726 723 717 712 706 702 700 696 690 684 681
826 867 834 817 814 809 807 821 814 814 813 811 811 809 810 806 800 796 794 793 789 786 782 780 775 768 764 757 753 749 741 734 729 726 722 716 711 706 703 700 695 688 682 677
849 867 839 818 812 813 821 816 815 813 812 812 812 810 810 808 804 801 796 790 788 786 783 780 774 769 765 760 754 743 737 733 730 727 722 717 713 710 706 700 693 685 679 673
834 829 820 816 819 820 818 817 814 814 813 812 811 809 810 810 809 807 802 797 793 785 778 774 771 767 760 756 751 746 742 739 735 729 724 720 716 712 707 699 691 685 680 674
825 817 814 820 818 819 818 817 815 815 815 814 814 811 809 808 806 805 803 802 797 792 785 780 774 769 765 761 756 748 743 739 734 730 724 718 714 707 702 696 690 685 680 675
821 813 813 814 815 816 815 815 816 817 817 818 816 814 812 810 808 806 803 800 798 797 794 791 785 778 770 764 761 755 750 742 735 730 724 718 712 707 703 697 693 687 680 674
820 815 818 817 816 814 815 818 818 819 818 818 817 815 813 811 810 808 806 803 799 795 791 784 775 770 769 767 763 756 747 743 740 734 727 719 713 706 702 696 693 688 679 672
809 809 812 815 817 817 818 820 820 820 819 818 817 815 812 809 807 804 801 796 792 787 782 777 773 770 767 762 756 751 746 741 735 729 723 719 715 711 704 697 696 692 682 674
806 809 814 816 818 820 821 821 821 821 820 819 818 815 812 809 806 802 798 794 790 786 782 778 774 770 765 761 756 751 746 740 735 730 726 723 718 714 710 707 703 695 689 685
810 810 813 817 820 821 821 821 821 821 820 819 818 816 813 810 806 802 798 794 790 786 783 779 774 770 765 761 756 752 747 742 739 735 731 728 725 720 717 713 708 703 698 692
813 815 817 818 820 822 822 823 823 823 821 820 818 816 813 810 806 802 798 794 791 787 783 779 775 771 767 762 758 754 750 746 742 739 735 731 728 724 721 718 714 710 705 700
813 816 818 820 822 823 824 825 825 824 823 822 820 817 814 810 805 801 798 795 792 788 784 780 775 771 768 764 760 756 752 748 745 741 738 735 732 729 727 723 719 715 712 707
814 818 821 823 824 824 825 826 826 825 825 823 821 818 813 810 807 804 800 796 791 787 784 779 775 772 769 765 761 757 754 750 747 744 742 739 735 733 730 727 724 720 717 713
819 821 823 824 825 825 826 826 826 825 824 822 820 817 814 811 808 805 801 797 792 788 784 780 776 773 770 766 763 760 756 753 750 748 745 743 740 737 734 732 729 726 723 719
822 823 824 825 826 826 826 827 826 825 823 822 820 817 815 812 809 805 802 800 797 793 787 782 778 775 772 769 765 762 759 756 754 751 749 747 745 742 739 737 735 732 729 726
823 824 826 827 827 827 827 826 825 824 822 821 819 817 815 812 810 807 803 801 797 793 789 785 781 778 774 771 768 765 763 760 758 756 753 751 750 748 745 743 741 738 737 734
824 825 827 827 828 828 828 827 825 824 822 821 819 818 815 812 810 808 807 804 799 795 791 787 783 780 777 774 771 769 766 764 762 760 758 756 754 753 751 750 747 746 744 742
825 826 826 827 828 828 828 827 826 825 823 821 820 818 816 814 812 810 807 804 800 797 793 790 786 782 780 776 774 772 770 768 766 764 762 761 759 758 757 756 754 753 751 751
824 825 826 827 827 828 827 827 826 825 822 822 821 819 817 815 813 812 810 806 802 799 796 792 788 785 782 780 777 776 774 772 770 768 767 765 764 762 761 760 759 759 758 757
824 825 826 827 828 828 827 827 825 824 823 823 821 820 818 817 815 812 810 807 804 801 798 795 791 788 786 783 781 779 778 776 775 773 771 769 768 766 765 764 764 763 763 763
824 826 827 827 828 827 827 826 826 825 824 823 822 821 819 818 815 813 811 808 806 803 800 797 794 792 789 787 785 783 782 780 779 777 775 774 772 771 770 769 768 768 768 768
825 827 827 827 827 827 827 826 825 825 824 823 823 822 820 818 816 813 811 809 807 805 802 800 797 795 793 791 789 787 786 784 783 781 780 778 776 775 774 774 773 773 773 773